When you browse on this site, cookies collect data to enhance your experience and personalize the content and advertising you see.
Visit our Privacy Policy to learn more. By continuing to use the site, you agree to this use of cookies and data.

Hourly Weather Ikskile

Today, 26 September, Saturday

Time Temperature Precipitation Wind Pressure Humidity
00:00 +17°C° 0 mm 4 mps 750 mmHg 72%
01:00 +17°C° 0 mm 4 mps 750 mmHg 73%
02:00 +15°C° 0 mm 4 mps 750 mmHg 73%
03:00 +15°C° 0.1 mm 4 mps 750 mmHg 74%
04:00 +15°C° 0.1 mm 4 mps 750 mmHg 76%
05:00 +15°C° 0.1 mm 4 mps 750 mmHg 77%
06:00 +15°C° 0 mm 4 mps 750 mmHg 76%
07:00 +15°C° 0 mm 4 mps 750 mmHg 75%
08:00 +16°C° 0 mm 5 mps 750 mmHg 73%
09:00 +17°C° 0 mm 5 mps 750 mmHg 68%
10:00 +19°C° 0 mm 5 mps 751 mmHg 64%
11:00 +21°C° 0 mm 5 mps 751 mmHg 60%
12:00 +22°C° 0 mm 5 mps 751 mmHg 58%
13:00 +23°C° 0 mm 5 mps 751 mmHg 56%
14:00 +23°C° 0 mm 5 mps 751 mmHg 54%
15:00 +23°C° 0 mm 5 mps 751 mmHg 57%
16:00 +22°C° 0 mm 4 mps 751 mmHg 60%
17:00 +22°C° 0 mm 4 mps 751 mmHg 63%
18:00 +21°C° 0 mm 4 mps 752 mmHg 67%
19:00 +20°C° 0 mm 4 mps 752 mmHg 70%
20:00 +19°C° 0 mm 4 mps 753 mmHg 73%
21:00 +19°C° 0 mm 4 mps 753 mmHg 73%
22:00 +18°C° 0 mm 4 mps 753 mmHg 73%
23:00 +18°C° 0 mm 4 mps 754 mmHg 74%

Tomorrow, 27 September, Sunday

Time Temperature Precipitation Wind Pressure Humidity
00:00 +17°C° 0 mm 4 mps 754 mmHg 74%
01:00 +17°C° 0 mm 4 mps 754 mmHg 74%
02:00 +15°C° 0 mm 4 mps 754 mmHg 74%
03:00 +15°C° 0 mm 4 mps 754 mmHg 74%
04:00 +15°C° 0 mm 4 mps 754 mmHg 75%
05:00 +14°C° 0 mm 4 mps 754 mmHg 75%
06:00 +15°C° 0 mm 4 mps 754 mmHg 73%
07:00 +15°C° 0 mm 5 mps 755 mmHg 71%
08:00 +15°C° 0 mm 5 mps 755 mmHg 70%
09:00 +16°C° 0 mm 5 mps 755 mmHg 65%
10:00 +19°C° 0 mm 5 mps 755 mmHg 60%
11:00 +20°C° 0 mm 5 mps 755 mmHg 55%
12:00 +21°C° 0 mm 5 mps 755 mmHg 52%
13:00 +22°C° 0 mm 5 mps 754 mmHg 49%
14:00 +23°C° 0 mm 5 mps 754 mmHg 47%
15:00 +22°C° 0 mm 5 mps 754 mmHg 50%
16:00 +21°C° 0 mm 5 mps 754 mmHg 53%
17:00 +21°C° 0 mm 4 mps 754 mmHg 57%
18:00 +20°C° 0 mm 4 mps 754 mmHg 59%
19:00 +18°C° 0 mm 4 mps 755 mmHg 62%
20:00 +17°C° 0 mm 4 mps 755 mmHg 64%
21:00 +17°C° 0 mm 4 mps 755 mmHg 67%
22:00 +15°C° 0 mm 4 mps 755 mmHg 69%
23:00 +15°C° 0 mm 4 mps 756 mmHg 71%

Day after tomorrow, 28 September, Monday

Time Temperature Precipitation Wind Pressure Humidity
00:00 +14°C° 0 mm 3 mps 756 mmHg 74%
01:00 +14°C° 0 mm 3 mps 755 mmHg 76%
02:00 +14°C° 0 mm 3 mps 755 mmHg 78%
03:00 +13°C° 0.3 mm 3 mps 755 mmHg 81%
04:00 +13°C° 0.3 mm 3 mps 756 mmHg 85%
05:00 +13°C° 0.3 mm 3 mps 756 mmHg 88%
06:00 +13°C° 0.5 mm 3 mps 756 mmHg 90%
07:00 +13°C° 0.5 mm 3 mps 756 mmHg 92%
08:00 +13°C° 0.5 mm 3 mps 756 mmHg 94%
09:00 +13°C° 0.3 mm 3 mps 756 mmHg 92%
10:00 +13°C° 0.3 mm 3 mps 757 mmHg 90%
11:00 +13°C° 0.3 mm 3 mps 757 mmHg 89%
12:00 +14°C° 0 mm 2 mps 757 mmHg 85%
13:00 +14°C° 0 mm 2 mps 757 mmHg 82%
14:00 +15°C° 0 mm 2 mps 758 mmHg 79%
15:00 +15°C° 0 mm 2 mps 758 mmHg 79%
16:00 +15°C° 0 mm 2 mps 758 mmHg 79%
17:00 +15°C° 0 mm 2 mps 758 mmHg 79%
18:00 +14°C° 0 mm 2 mps 758 mmHg 83%
19:00 +13°C° 0 mm 2 mps 759 mmHg 86%
20:00 +12°C° 0 mm 2 mps 759 mmHg 89%
21:00 +10°C° 0 mm 2 mps 759 mmHg 90%
22:00 +10°C° 0 mm 2 mps 759 mmHg 90%
23:00 +10°C° 0 mm 2 mps 759 mmHg 90%

29 September, Tuesday

Time Temperature Precipitation Wind Pressure Humidity
00:00 +10°C° 0 mm 2 mps 759 mmHg 89%
01:00 +12°C° 0 mm 2 mps 759 mmHg 87%
02:00 +12°C° 0 mm 2 mps 759 mmHg 85%
03:00 +10°C° 0 mm 2 mps 759 mmHg 88%
04:00 +10°C° 0 mm 2 mps 759 mmHg 90%
05:00 +9°C° 0 mm 2 mps 759 mmHg 92%
06:00 +9°C° 0 mm 2 mps 759 mmHg 90%
07:00 +10°C° 0 mm 2 mps 759 mmHg 87%
08:00 +10°C° 0 mm 2 mps 759 mmHg 84%
09:00 +13°C° 0 mm 2 mps 759 mmHg 79%
10:00 +14°C° 0 mm 2 mps 759 mmHg 73%
11:00 +16°C° 0 mm 2 mps 759 mmHg 68%
12:00 +17°C° 0 mm 2 mps 759 mmHg 67%
13:00 +17°C° 0 mm 2 mps 759 mmHg 66%
14:00 +18°C° 0 mm 2 mps 759 mmHg 65%
15:00 +19°C° 0 mm 1 mps 759 mmHg 70%
16:00 +18°C° 0 mm 1 mps 759 mmHg 75%
17:00 +18°C° 0 mm 1 mps 759 mmHg 79%
18:00 +15°C° 0 mm 1 mps 759 mmHg 84%
19:00 +14°C° 0 mm 1 mps 759 mmHg 89%
20:00 +13°C° 0 mm 1 mps 759 mmHg 94%
21:00 +13°C° 0 mm 1 mps 759 mmHg 94%
22:00 +12°C° 0 mm 1 mps 759 mmHg 94%
23:00 +12°C° 0 mm 1 mps 759 mmHg 94%

30 September, Wednesday

Time Temperature Precipitation Wind Pressure Humidity
00:00 +11°C° 0 mm 1 mps 759 mmHg 93%
01:00 +11°C° 0 mm 1 mps 759 mmHg 93%
02:00 +11°C° 0 mm 1 mps 759 mmHg 92%
03:00 +11°C° 0 mm 1 mps 759 mmHg 92%
04:00 +10°C° 0 mm 2 mps 759 mmHg 92%
05:00 +10°C° 0 mm 2 mps 759 mmHg 92%
06:00 +10°C° 0 mm 2 mps 759 mmHg 90%
07:00 +12°C° 0 mm 2 mps 759 mmHg 88%
08:00 +12°C° 0 mm 2 mps 759 mmHg 86%
09:00 +14°C° 0 mm 2 mps 759 mmHg 80%
10:00 +16°C° 0 mm 2 mps 759 mmHg 73%
11:00 +18°C° 0 mm 2 mps 759 mmHg 66%
12:00 +19°C° 0 mm 3 mps 758 mmHg 63%
13:00 +19°C° 0 mm 3 mps 758 mmHg 60%
14:00 +20°C° 0 mm 3 mps 758 mmHg 58%
15:00 +19°C° 0 mm 3 mps 758 mmHg 62%
16:00 +19°C° 0 mm 3 mps 757 mmHg 66%
17:00 +18°C° 0 mm 2 mps 757 mmHg 71%
18:00 +17°C° 0 mm 2 mps 757 mmHg 73%
19:00 +16°C° 0 mm 2 mps 757 mmHg 75%
20:00 +14°C° 0 mm 3 mps 757 mmHg 77%
21:00 +14°C° 0 mm 2 mps 757 mmHg 77%
22:00 +14°C° 0 mm 2 mps 757 mmHg 77%
23:00 +13°C° 0 mm 2 mps 757 mmHg 77%

1 October, Thursday

Time Temperature Precipitation Wind Pressure Humidity
00:00 +13°C° 0 mm 2 mps 757 mmHg 74%
01:00 +12°C° 0 mm 3 mps 756 mmHg 71%
02:00 +12°C° 0 mm 3 mps 756 mmHg 68%
03:00 +11°C° 0 mm 3 mps 756 mmHg 69%
04:00 +11°C° 0 mm 3 mps 756 mmHg 69%
05:00 +11°C° 0 mm 3 mps 756 mmHg 69%
06:00 +11°C° 0 mm 3 mps 755 mmHg 67%
07:00 +11°C° 0 mm 4 mps 755 mmHg 65%
08:00 +11°C° 0 mm 4 mps 755 mmHg 63%
09:00 +12°C° 0 mm 4 mps 755 mmHg 61%
10:00 +12°C° 0 mm 4 mps 755 mmHg 59%
11:00 +13°C° 0 mm 4 mps 754 mmHg 56%
12:00 +13°C° 0 mm 4 mps 754 mmHg 56%
13:00 +14°C° 0 mm 5 mps 754 mmHg 55%
14:00 +14°C° 0 mm 5 mps 754 mmHg 55%
15:00 +14°C° 0 mm 5 mps 753 mmHg 56%
16:00 +14°C° 0 mm 4 mps 753 mmHg 58%
17:00 +14°C° 0 mm 4 mps 753 mmHg 59%
18:00 +13°C° 0 mm 4 mps 753 mmHg 63%
19:00 +13°C° 0 mm 5 mps 753 mmHg 68%
20:00 +12°C° 0 mm 5 mps 753 mmHg 72%
21:00 +12°C° 0 mm 5 mps 753 mmHg 75%
22:00 +12°C° 0 mm 5 mps 753 mmHg 77%
23:00 +12°C° 0 mm 5 mps 753 mmHg 80%
Show more